Torna al catalogo

COSMOS 1360

AttivoMilitareLEO
NORAD 13163·PAYLOAD·🇷🇺 Russia

Lanciato May 6, 1982 da Plesetsk Cosmodrome

Loading…

Prossimi Passaggi (prossime 24 ore)

TLE

AggiornatoSource: Space-Track

Epoca: Sep 14, 2026, 19:35 UTC

1 13163U 82040D   26257.81648493 -.00000001  00000-0  98121-4 0  9990
2 13163  74.0125 186.3556 0023569 287.4935  99.5828 12.50200657748987

Traccia COSMOS 1360 in tempo reale con AllMySat

Download on the App Store